IRIDIUM 133

Last updated on Sun Jun 21 2026 00:03:14 GMT+0000 (Coordinated Universal Time)

1 42955U 17061A 26171.31067931 .00000063 00000+0 15581-4 0 9999 2 42955 86.3967 23.9621 0002095 87.7082 272.4354 14.34217626455228
UTC large
Height (km)
Speed (km/s)
/
Latitude / Longitude
Inclination (degrees)
Orbital Period (minutes)
Azimuth
Elevation
Range (km)
Doppler Factor

Next 0 passes for location: London (51.5072 / 0.1276)

No passes found over London.
IRIDIUM 133